Flag for United Kingdom Weather past 2 weeks in Bury, England, United Kingdom

Now
43 °F

Passing clouds.


Feels Like: 36 °F
Forecast: 40 / 47 °F
Wind: 13 mph from Northwest

Location: Manchester Airport

Current Time: Mar 30, 2015 at 9:10:47 AM

Latest Report: Mar 30, 2015 at 8:50 AM


Visibility: N/A

Pressure: 29.74 "Hg

Humidity: 71%

Dew point: 34 °F

Location of BuryLocation

Historic Weather in Bury — Graph

°F

Bury temperature yesterday

Maximum temperature yesterday: 48 °F (at 12:20 AM)
Minimum temperature yesterday: 41 °F (at 11:50 PM)
Average temperature yesterday: 45 °F

Past Weeks' High & Low Weather Summary

 TemperatureHumidityPressure
High55 °F (Mar 28, 11:50 AM)100% (Mar 18, 12:50 AM)30.60 "Hg (Mar 18, 12:50 AM)
Low27 °F (Mar 18, 6:20 AM)50% (Mar 25, 1:50 PM)29.21 "Hg (Mar 29, 10:50 AM)
Average42 °F80%30.08 "Hg
* Reported Mar 15 6:20 AM — Mar 30 7:50 AM, Bury, Weather by CustomWeather, © 2015

Note: Actual official high and low records may vary slightly from our data, if they occured in-between our weather recording intervals... More about our weather records

Advertising

Bury weather history for previous 24 hours

 ConditionsComfort  
Time TempWeatherWind HumidityBarometerVisibility
7:50 AM
Mon, Mar 30
41 °FPassing clouds.12 mph70%29.74 "HgN/A
7:20 AM41 °FPassing clouds.13 mph70%29.71 "HgN/A
6:50 AM41 °FPassing clouds.14 mph70%29.68 "HgN/A
6:20 AM41 °FPassing clouds.15 mph70%29.68 "HgN/A
5:50 AM41 °FPassing clouds.18 mph70%29.65 "HgN/A
5:20 AM41 °FPassing clouds.18 mph70%29.62 "HgN/A
4:50 AM41 °FPartly cloudy.22 mph76%29.59 "HgN/A
4:20 AM41 °FPartly cloudy.22 mph87%29.59 "HgN/A
3:50 AM41 °FPartly cloudy.20 mph87%29.56 "HgN/A
3:20 AM41 °FLight rain. Partly cloudy.20 mph87%29.56 "HgN/A
2:50 AM41 °FPartly cloudy.15 mph81%29.56 "HgN/A
2:20 AM41 °FPassing clouds.17 mph81%29.56 "HgN/A
1:50 AM41 °FPartly cloudy.17 mph87%29.53 "HgN/A
1:20 AM41 °FPassing clouds.16 mph81%29.53 "HgN/A
12:50 AM39 °FChilly.15 mph87%29.53 "HgN/A
12:20 AM41 °FPassing clouds.16 mph81%29.50 "HgN/A
11:50 PM
Sun, Mar 29
41 °FPassing clouds.18 mph87%29.50 "HgN/A
11:20 PM45 °FPartly cloudy.15 mph76%29.47 "HgN/A
10:50 PM43 °FPassing clouds.14 mph81%29.47 "HgN/A
10:20 PM45 °FPartly cloudy.16 mph76%29.45 "HgN/A
9:50 PM45 °FPassing clouds.15 mph76%29.45 "HgN/A
9:20 PM45 °FPassing clouds.17 mph76%29.45 "HgN/A
8:50 PM45 °FPassing clouds.18 mph76%29.45 "HgN/A
8:20 PM45 °FPassing clouds.18 mph71%29.42 "HgN/A
7:50 PM45 °FPassing clouds.18 mph76%29.42 "HgN/A
7:20 PM46 °FPassing clouds.21 mph71%29.39 "HgN/A
6:50 PM46 °FScattered clouds.21 mph76%29.39 "HgN/A
6:20 PM46 °FScattered clouds.25 mph76%29.36 "HgN/A
5:50 PM46 °FScattered clouds.21 mph76%29.36 "HgN/A
5:20 PM48 °FScattered showers. Broken clouds.20 mph76%29.33 "HgN/A
4:50 PM46 °FPartly sunny.22 mph82%29.36 "HgN/A
4:20 PM46 °FPartly sunny.24 mph82%29.33 "HgN/A
3:50 PM46 °FPartly sunny.22 mph82%29.33 "HgN/A
3:20 PM46 °FBroken clouds.25 mph82%29.33 "HgN/A
2:50 PM46 °FScattered showers. Broken clouds.26 mph87%29.30 "HgN/A
2:20 PM45 °FDrizzle. Broken clouds.18 mph93%29.30 "Hg3 mi
1:50 PM45 °FDrizzle. Broken clouds.21 mph100%29.27 "Hg5 mi
1:20 PM45 °FScattered showers. Broken clouds.10 mph100%29.24 "HgN/A
12:50 PM45 °FLight rain. Broken clouds.12 mph93%29.24 "Hg4 mi
12:20 PM45 °FDrizzle. Broken clouds.9 mph93%29.21 "Hg3 mi
11:50 AM43 °FLight rain. Broken clouds.9 mph100%29.21 "Hg2 mi
11:20 AM43 °FRain. Broken clouds.7 mph100%29.21 "Hg2 mi
10:50 AM43 °FDrizzle. Broken clouds.3 mph100%29.21 "Hg2 mi
10:20 AM43 °FDrizzle. Broken clouds.8 mph100%29.27 "Hg2 mi
9:50 AM43 °FDrizzle. Mostly cloudy.8 mph100%29.30 "Hg2 mi
9:20 AM43 °FLight rain. Broken clouds.7 mph100%29.33 "Hg3 mi
Weather by CustomWeather, © 2015

See weather overviewHow to use our weather pages